sat.trackr.live / text

‹ back to catalog

STARLINK-5506

NORAD 55651 · 2023-021Z

PAYLOAD ACTIVE UNKNOWN

§ Identity

Operator
Country
US
Launch date
2023-02-17
Launch site
AFWTR
Launch vehicle
Mass (kg)
RCS (m²)

Purposes: comms

External: N2YO · Heavens-Above · Gunter

§ Orbital elements

Epoch: 2026-05-24T23:00:43.884000Z

Period
96.11 min
Inclination
69.9999°
Eccentricity
0.0003004
Mean motion
14.98337013 rev/d
Perigee alt
569.9 km
Apogee alt
574.1 km
Semi-major
6,950.2 km
B*
1.7012e-6
RAAN
352.2426°
Arg perigee
266.8678°
Mean anomaly
93.2138°
Rev number
18,021

§ Raw data

STARLINK-55061 55651U 23021Z   26144.95884125 -.00000073  00000+0  17012-5 0  99952 55651  69.9999 352.2426 0003004 266.8678  93.2138 14.98337013180216

JSON: /api/v1/satellites/55651 · /tle

For live sub-satellite position, see the globe view (requires WebGL).

§ Visibility from observer

Set your observer location to see the next 7 days of passes ≥ 10°. The values pass through the URL so the page stays shareable.

No JS? Fill the form by hand. The geolocation button needs JavaScript.